Regional Weather Roundup
Issued by NWS

Home | Current Version | Previous Version | Graphics & Text | Print | Product List | Glossary Off
Versions: 1 2 3 4 5 6 7 8 9 10 11 12 13 14 15 16 17 18 19 20 21 22 23 24 25

000
ASUS45 KTFX 230510
RWRMT
MONTANA REGIONAL WEATHER ROUNDUP
NATIONAL WEATHER SERVICE GREAT FALLS MT
1100 PM MDT TUE AUG 22 2017

NOTE: "FAIR" INDICATES FEW OR NO CLOUDS BELOW 12000 FEET WITH NO
SIGNIFICANT WEATHER AND/OR OBSTRUCTIONS TO VISIBILITY.

MTZ001>007-043-230600-
WEST OF THE DIVIDE

CITY           SKY/WX    TMP DP  RH WIND       PRES   REMARKS
KALISPELL      CLEAR     58  44  60 NW3       29.99S
MISSOULA       CLEAR     68  41  37 CALM      30.04R
BUTTE          CLEAR     65  34  31 SE5       30.21R
MULLAN PASS    CLEAR     67  36  31 SW5       30.21F
ANACONDA         N/A     70  28  21 W5        30.17R
DEER LODGE       N/A     64  37  36 SE5       30.16S
EUREKA           N/A     70  39  32 MISG      29.95F
HAMILTON         N/A     66  37  34 S6        30.08S
LIBBY            N/A     70  41  35 CALM      29.96S
PLAINS           N/A     66  40  38 CALM      30.00R
RONAN            N/A     58  49  72 NE3       30.06S
THOMPSON FALLS   N/A     64  42  44 CALM      30.03R
$$

MTZ008-052>055-230600-
SOUTHWEST MONTANA

CITY           SKY/WX    TMP DP  RH WIND       PRES   REMARKS
BOZEMAN        CLEAR     68  39  34 S12       30.11R
DILLON         CLEAR     67  32  27 S6        30.16R
W YELLOWSTONE  CLEAR     55  30  38 E3        30.30R
ENNIS          CLEAR     72  27  18 S13       30.21S
$$

MTZ009-010-012-014-046-048-049-054-230600-
EAST SLOPES AND CENTRAL MONTANA

CITY           SKY/WX    TMP DP  RH WIND       PRES   REMARKS
CUT BANK       CLEAR     68  37  32 SE3       30.05S
GREAT FALLS    CLEAR     69  31  24 E6        30.04S
MALMSTROM AFB  CLEAR     66  32  28 CALM      30.03F
HELENA         PTCLDY    73  33  23 NE6       30.07S
AUGUSTA          N/A     60  31  33 N7        30.10S
BOWMANS CRNR     N/A     68  30  24 N3        30.07S
CHOTEAU          N/A     68  37  32 S3        30.08F
CONRAD           N/A     56  40  55 N3        30.07S
FAIRFIELD        N/A     61  33  35 NW3       30.06S
POWER            N/A     67  32  26 E7        30.05S
RAYNESFORD       N/A     66  35  32 E9        30.07F
ULM              N/A     65  32  29 SE5       30.03S
$$

MTZ011-013-016-021-045-047-050-051-230600-
NORTH CENTRAL MONTANA

CITY           SKY/WX    TMP DP  RH WIND       PRES   REMARKS
HAVRE          CLEAR     72  40  31 E9        30.00S
LEWISTOWN      CLEAR     65  35  33 SE5       30.10S
N BAR RANCH      N/A     59  32  36 W5        30.16S
CHINOOK          N/A     66  43  42 CALM      30.01S
DENTON           N/A     68  35  28 S12       30.02F
GEYSER           N/A     64  35  33 SW6       30.08S
GRASS RANGE      N/A     63  33  32 W5        30.07S
JUDITH GAP       N/A     68  33  28 S8        30.13S
WINIFRED       MOCLDY    69  34  27 SE16      30.05F
$$

MTZ017>020-022>027-061-062-230600-
NORTHEAST MONTANA

CITY           SKY/WX    TMP DP  RH WIND       PRES   REMARKS
GLASGOW        CLEAR     68  36  30 E14       30.03S
JORDAN           N/A     67  34  29 E5        30.04S
SIDNEY         CLEAR     62  40  44 SW3       30.09R
WOLF POINT     CLEAR     64  38  38 E8        30.05S
MALTA          CLEAR     61  43  51 NE6       30.02R
PLENTYWOOD       N/A     64  43  45 CALM      30.06S
SCOBEY           N/A     61  36  39 CALM      30.05S
$$

MTZ028>42-056>058-230600-
SOUTHCENTRAL AND SOUTHEAST MONTANA

CITY           SKY/WX    TMP DP  RH WIND       PRES   REMARKS
BAKER          CLEAR     62  40  44 SE10      30.13R
BILLINGS       CLEAR     73  34  23 E3        30.06S
LIVINGSTON     CLEAR     70  36  28 SE10      30.11R
MILES CITY     CLEAR     71  37  28 E8        30.05S
BIG TIMBER     CLEAR     70  34  26 NE9       30.13F
EKALAKA          N/A     66  41  40 SE10      30.09R
HARLOWTON        N/A     65  32  29 MISG      30.12R
LAUREL           N/A     71  34  25 CALM      30.05F
$$

REGIONAL REPORTS...DAKOTAS

CITY           SKY/WX    TMP DP  RH WIND       PRES   REMARKS
WILLISTON      CLEAR     65  46  50 S5        30.08S
MINOT          CLEAR     59  44  57 S6        30.09S
DICKINSON      CLEAR     54  42  64 SE8       30.13R
BEACH            N/A     55  41  58 SE8       30.16R
CROSBY           N/A     57  45  62 S8        30.07S
TIOGA            N/A     59  41  51 S8        30.11S
WATFORD CITY     N/A     59  39  47 CALM      30.10R
BISMARCK       CLEAR     52  49  89 E3        30.13R
GRAND FORKS    CLEAR     51  48  89 W7        30.08S
FARGO          CLEAR     53  47  79 CALM      30.08S
BUFFALO SD       N/A     65  46  50 E12       30.06S
RAPID CITY     CLEAR     62  45  53 E6        30.10S
$$

REGIONAL REPORTS...WYOMING/IDAHO/WASHINGTON

CITY           SKY/WX    TMP DP  RH WIND       PRES   REMARKS
GILLETTE       CLEAR     56  34  43 SW6       30.13S
SHERIDAN       CLEAR     59  43  55 CALM      30.11S
BUFFALO WY     CLEAR     66  35  31 W8        30.19S
CODY           CLEAR     61  34  36 S6        30.19R
YELLOWSTONE LA   N/A     44  31  60 CALM      30.41R
IDAHO FALLS    CLEAR     59  45  59 CALM      30.14S
SALMON         CLEAR     66  35  31 SE5       30.11R
BOISE          CLEAR     75  47  36 SE5       29.98S
SPOKANE        MOCLDY    75  39  27 SW7       29.96S
$$

REGIONAL REPORTS...ALBERTA

CITY           SKY/WX    TMP DP  RH WIND       PRES   REMARKS
EDMONTON       CLEAR     57  54  88 E3        29.98S
CALGARY        PTCLDY    68  43  40 SE10      30.02S
LETHBRIDGE     CLEAR     61  45  55 SE9G20    29.99S
MEDICINE HAT   CLEAR     66  48  52 VRB2      29.97S
$$

REGIONAL REPORTS...SASKATCHEWAN

CITY           SKY/WX    TMP DP  RH WIND       PRES   REMARKS
SWIFT CURRENT  CLEAR     59  43  55 SE10      30.02F
REGINA         MOCLDY    63  41  45 SE12      30.03S
SASKATOON      PTCLDY    59  50  72 CALM      30.01R
$$




USA.gov is the U.S. government's official web portal to all federal, state and local government web resources and services.